GEFSNGP_500_meanwind_060.txt.gz
Wind_Speed
17 18 19 20 20 20 20 20 20 20 19 19 18 18 18 17 16 16 16 16 16 16 15 14 12 12 11 10 8 8 6 4 3 3 3 3 3 5 6 6 5 5 5 5
17 18 19 19 20 21 21 21 20 21 21 20 19 18 18 17 16 16 15 15 16 16 16 16 14 13 12 11 9 8 6 6 5 4 4 4 4 4 4 4 5 5 6 6
16 17 18 19 20 21 22 21 21 21 21 20 19 18 17 17 15 15 15 15 16 16 16 15 15 14 13 12 10 9 8 7 6 5 5 4 4 4 5 6 6 7 7 8
16 17 19 20 21 21 22 22 22 22 21 21 19 18 17 16 15 15 15 15 15 15 16 16 16 15 14 14 13 11 9 8 7 6 5 5 5 6 7 7 7 8 9 9
16 17 19 20 21 21 22 22 23 22 22 21 19 17 16 16 15 15 15 15 16 16 16 16 16 16 16 16 15 14 12 10 9 8 7 6 6 7 7 8 9 9 10 11
15 17 19 20 21 21 22 22 23 22 21 21 19 18 17 16 15 15 15 15 16 17 17 18 18 18 18 17 16 16 15 13 11 10 8 8 7 6 6 7 8 9 10 11
14 16 18 20 21 22 23 23 22 22 21 20 19 18 17 17 17 16 16 16 17 17 18 18 19 19 19 19 18 18 17 15 14 12 11 10 9 7 7 7 7 8 10 11
14 15 17 19 20 21 22 22 22 22 21 20 19 18 18 17 17 17 17 17 17 18 18 19 19 20 20 20 20 19 18 18 16 15 14 13 11 10 9 8 7 7 8 9
14 15 16 17 19 19 20 20 20 21 21 20 19 19 18 18 18 17 17 18 18 19 19 19 19 20 20 21 21 20 20 19 18 17 16 14 13 12 10 9 8 7 6 6
13 14 15 15 17 18 19 19 19 19 19 19 19 19 18 18 17 17 17 18 18 18 19 19 19 20 20 21 21 21 21 20 19 18 18 17 15 14 13 12 10 8 7 6
12 13 14 14 15 16 17 17 17 18 17 17 18 17 17 17 16 16 17 17 18 18 18 19 19 20 21 21 21 21 21 20 20 19 19 18 17 16 15 15 13 11 9 8
11 12 12 13 13 14 15 16 16 16 15 15 15 16 15 15 15 15 15 16 16 17 18 18 19 19 20 21 21 21 21 20 20 20 19 19 18 17 17 16 15 14 13 11
11 11 11 12 12 12 13 14 14 14 14 13 13 13 13 13 13 14 14 15 15 16 17 17 18 18 19 20 20 21 21 21 20 20 19 19 19 18 18 17 17 16 15 14
10 11 11 11 11 11 11 12 12 13 13 12 11 12 12 11 12 12 12 13 14 15 15 16 17 17 18 19 19 20 20 20 20 20 20 20 19 19 19 18 17 17 17 16
11 11 11 11 11 11 11 11 11 11 11 11 10 10 10 10 10 11 11 11 12 13 13 14 15 16 17 18 18 19 19 20 20 20 20 20 19 19 19 19 18 18 17 17
12 12 12 11 11 11 10 10 10 10 10 10 9 9 9 9 8 9 9 10 10 11 12 13 13 14 15 16 17 17 18 19 19 20 20 20 19 19 18 18 18 17 17 17
14 13 13 12 12 12 11 11 10 10 9 9 9 9 8 8 8 8 8 9 9 10 10 11 11 12 13 14 15 15 16 17 17 18 19 19 19 18 18 18 18 17 16 16
17 16 15 14 14 13 13 12 11 11 10 10 9 9 9 9 9 9 9 8 9 9 9 9 10 10 11 12 12 13 14 14 15 16 17 17 17 17 17 17 16 16 16 15
21 19 18 17 16 15 15 14 14 13 13 12 11 11 10 10 10 10 10 10 9 9 9 9 9 9 9 10 10 11 12 12 13 13 14 15 15 15 15 15 15 15 15 14
24 23 21 20 19 18 18 17 16 16 15 14 14 14 13 12 12 11 11 11 11 11 10 10 10 9 9 9 9 9 9 10 11 11 12 12 13 13 13 13 13 13 13 12
28 27 25 24 23 22 21 20 20 19 18 17 17 17 16 16 15 14 14 13 12 12 12 12 11 11 10 10 9 9 9 9 9 9 10 10 10 11 11 11 11 11 11 10
32 31 30 28 27 26 25 24 23 22 22 21 20 20 19 19 19 18 17 16 15 14 14 13 13 12 12 11 11 10 10 9 9 9 8 8 9 9 9 9 9 9 9 8
37 36 35 33 32 31 29 28 28 27 26 25 24 23 22 22 22 21 21 20 19 18 17 16 15 14 13 13 13 12 11 11 10 9 8 8 8 7 7 7 8 7 7 7
43 42 41 39 38 36 35 34 33 31 31 30 29 28 27 26 25 24 24 23 22 21 20 19 18 17 16 15 14 14 13 13 12 11 10 9 8 8 7 7 7 7 6 6
47 47 46 45 43 42 41 39 38 36 35 34 33 32 31 30 29 28 27 26 25 25 24 22 21 20 19 18 17 16 16 15 14 13 12 12 11 10 9 9 8 8 7 6
50 50 49 48 47 46 45 44 42 41 40 39 38 37 36 34 33 32 31 30 29 28 27 26 25 24 23 22 20 19 18 17 17 16 15 15 14 13 13 12 11 10 10 9
52 51 51 51 50 49 48 47 46 45 44 43 42 41 40 39 38 37 35 34 33 32 31 30 29 28 27 26 24 23 22 21 20 19 18 18 18 17 16 15 15 14 13 12

GEFSNGP_500_meanwind_066.txt.gz
Wind_Speed
14 16 18 19 20 21 22 22 23 22 21 20 19 19 18 17 17 18 19 19 19 19 19 19 20 19 18 16 15 14 13 12 10 8 6 6 4 4 4 4 3 4 4 4
15 16 18 19 20 21 22 22 22 21 20 20 19 19 18 18 18 18 19 20 20 20 20 20 20 20 20 18 16 14 13 12 10 9 8 7 6 4 3 3 3 2 2 2
15 16 17 18 20 20 20 21 21 21 21 20 20 20 19 19 19 19 20 20 21 21 21 21 21 21 20 19 18 16 15 14 12 11 10 9 8 7 6 4 3 3 2 2
14 15 16 18 19 19 19 20 20 20 20 20 20 20 19 19 19 19 20 20 21 21 22 22 22 22 22 21 20 18 17 16 15 14 12 11 10 8 6 6 5 4 4 4
13 14 15 17 18 18 18 18 19 19 20 20 19 19 19 19 19 19 20 21 21 22 22 23 23 23 23 22 22 21 19 18 17 16 14 13 12 11 9 8 6 5 4 4
12 13 14 16 16 17 17 17 18 19 19 19 19 19 19 19 19 19 20 21 21 22 22 23 24 24 24 24 23 22 21 20 18 18 16 15 14 12 11 10 8 6 5 4
11 12 13 14 15 16 16 16 16 17 18 18 18 18 18 18 19 19 20 21 21 22 22 23 24 24 24 24 24 23 22 21 21 20 19 17 16 14 13 11 10 8 6 5
10 10 11 12 13 14 15 15 15 15 16 16 17 17 17 17 18 18 19 20 21 21 22 23 23 24 24 24 24 23 22 22 22 21 20 19 18 16 15 13 12 10 9 7
9 9 10 11 12 12 13 13 14 14 14 14 15 15 15 16 16 17 18 19 20 20 21 22 22 23 23 24 24 24 23 23 22 22 21 20 19 18 17 16 14 12 11 9
8 9 9 10 11 11 11 12 12 12 12 13 13 13 14 15 15 16 16 17 18 19 20 21 22 22 22 23 23 23 23 23 23 22 22 21 21 20 19 18 16 15 13 12
8 9 9 10 10 10 11 11 11 11 11 11 11 12 12 13 14 14 15 16 17 18 19 20 20 21 21 22 22 23 22 22 22 22 22 21 21 20 20 19 17 16 15 14
8 9 9 9 10 10 10 10 10 10 9 10 10 10 11 12 12 13 14 15 16 17 17 18 19 20 20 21 21 22 22 22 22 22 22 22 21 21 20 19 18 17 16 15
10 9 9 9 10 10 10 9 9 10 9 9 9 9 10 10 11 12 13 14 15 15 16 17 18 19 19 20 20 21 21 22 22 22 21 21 21 21 21 20 20 19 18 17
11 11 11 10 10 10 10 10 10 9 9 9 9 9 9 9 10 11 11 12 13 14 15 16 17 17 18 19 19 20 21 21 21 21 21 21 21 20 20 20 20 19 19 18
14 13 12 12 12 12 11 11 11 10 10 9 9 9 9 9 9 10 11 11 12 13 14 14 15 16 17 17 18 18 19 20 20 20 21 20 20 20 19 19 18 18 18 18
17 16 15 14 14 13 13 12 12 12 11 10 10 10 10 10 9 10 10 11 12 12 13 13 14 14 15 16 16 17 17 18 19 19 19 19 19 19 19 18 17 17 17 17
20 19 18 17 16 16 15 14 14 13 13 12 12 11 11 11 10 10 11 11 11 12 12 13 13 13 13 14 14 15 15 16 17 17 18 18 18 18 18 17 17 16 16 15
24 23 22 21 20 19 18 17 16 15 15 14 14 13 13 12 12 12 12 12 12 12 12 12 13 13 13 13 13 14 14 14 15 15 16 16 16 16 16 16 15 15 14 14
28 26 25 24 23 22 21 20 19 19 18 17 16 16 15 15 14 14 13 13 13 13 13 13 13 13 13 13 13 13 13 13 13 13 14 14 14 14 13 13 13 13 13 12
32 30 29 28 27 26 25 24 23 22 21 20 19 19 18 17 17 16 16 15 15 15 14 14 14 14 14 13 13 13 13 13 12 12 13 13 12 12 12 11 11 11 11 11
36 35 33 32 31 30 29 28 27 25 25 24 23 22 21 20 20 19 19 18 18 17 17 16 16 15 15 15 14 14 14 13 13 12 12 12 11 10 10 10 9 9 9 9
40 39 38 37 36 35 34 32 31 30 28 27 27 26 25 24 23 23 22 21 21 20 20 19 18 18 17 16 16 16 15 15 14 13 12 11 10 10 9 9 8 8 7 7
44 44 43 41 40 39 38 37 36 34 33 32 31 30 29 28 27 27 26 25 24 24 23 22 21 20 20 19 18 18 17 16 16 15 14 12 11 10 10 9 9 8 7 7
49 48 47 46 45 44 43 42 41 39 38 37 36 35 34 33 32 31 30 29 28 27 26 25 24 23 23 22 21 21 20 19 18 17 16 15 14 13 12 12 11 10 9 9
53 52 52 51 50 49 48 47 46 44 43 42 41 40 39 38 37 36 35 34 33 32 31 30 28 27 26 25 24 23 23 22 21 20 19 18 17 16 16 15 14 14 13 12
56 56 56 55 54 54 53 52 51 49 48 47 46 45 44 42 41 41 40 39 38 36 35 34 32 31 30 29 28 27 26 25 24 23 22 22 21 20 19 19 18 18 17 16
60 59 59 58 58 57 57 56 55 54 53 52 50 49 48 47 46 45 44 43 42 40 39 38 36 35 34 33 32 31 30 29 28 27 27 26 25 24 24 23 22 21 21 21

GEFSNGP_500_meanwind_072.txt.gz
Wind_Speed
9 10 12 13 13 15 16 17 18 19 19 19 19 20 20 21 22 22 22 22 23 23 23 23 23 23 22 20 18 17 16 15 14 13 12 11 9 7 4 2 4 5 7 7
8 10 11 12 13 14 15 17 17 18 18 19 19 20 20 21 22 23 23 23 23 24 24 24 24 23 23 22 21 19 18 17 15 14 13 12 10 8 7 4 1 2 3 5
8 9 10 11 13 14 14 16 17 17 18 18 18 19 20 21 22 22 23 24 24 24 24 24 24 24 23 22 22 21 20 18 17 16 15 13 11 10 9 7 5 3 1 1
7 8 10 11 12 13 13 14 15 16 17 17 18 19 19 20 21 22 22 23 23 24 24 24 24 24 24 23 22 22 21 20 19 18 17 15 13 11 10 8 7 5 3 2
6 7 9 10 11 12 12 13 14 15 15 16 17 18 19 19 20 21 21 22 23 23 24 24 24 24 24 24 23 23 22 21 20 19 18 17 16 13 11 9 7 6 5 3
4 6 7 9 10 11 11 12 12 13 14 15 16 17 17 18 19 20 20 21 22 22 23 24 24 24 24 24 24 24 23 22 21 20 20 19 17 15 13 11 9 7 6 4
3 4 6 7 8 9 10 11 11 12 13 14 15 16 16 17 18 19 19 20 20 21 22 22 23 23 23 23 23 23 23 23 22 22 21 20 19 17 16 14 12 10 8 6
3 4 5 6 7 8 9 9 10 10 11 12 13 14 16 16 17 18 18 19 20 20 21 21 22 22 23 23 23 23 22 22 22 22 21 20 19 19 17 16 14 12 10 8
4 4 4 5 6 7 7 8 9 9 10 11 12 13 14 15 16 17 17 18 19 19 20 20 21 21 22 22 22 22 22 22 22 22 21 21 20 19 18 17 15 14 12 10
6 5 5 5 6 6 7 7 8 8 9 10 10 11 12 14 15 15 16 17 18 18 19 19 20 20 21 21 22 22 22 22 22 21 21 21 20 20 19 18 17 15 14 12
8 8 7 7 6 7 7 7 8 8 9 9 10 10 11 12 13 14 14 15 16 17 18 18 19 19 20 20 21 21 22 22 22 21 21 20 20 20 19 19 18 17 15 13
11 10 9 8 8 8 8 8 8 8 8 9 9 9 10 10 11 12 13 14 14 15 16 17 17 18 19 19 20 20 21 21 21 21 20 19 19 19 19 19 18 17 16 14
14 13 12 11 10 10 9 9 9 9 9 9 9 9 10 10 10 11 11 12 13 14 15 15 16 16 17 18 18 19 19 20 20 20 20 19 19 18 18 18 18 17 16 15
17 16 15 14 13 12 12 11 10 10 10 10 9 10 10 10 10 10 10 11 11 12 13 14 14 15 16 16 17 17 18 18 19 19 19 18 18 18 17 17 17 17 16 15
21 19 18 17 16 15 14 14 13 12 12 11 11 10 10 10 10 10 10 10 11 11 11 12 13 13 14 15 15 16 16 17 17 17 17 17 17 17 16 16 16 16 16 15
24 22 21 20 19 18 17 16 16 15 14 13 12 12 11 11 11 11 11 11 11 11 11 11 11 12 13 13 14 14 14 15 15 16 16 16 16 16 15 15 15 15 15 14
27 26 25 24 22 21 20 20 19 18 16 15 15 14 13 13 13 12 12 12 11 11 11 11 11 11 12 12 13 13 13 13 14 14 14 15 14 14 14 13 13 13 13 13
31 30 29 27 26 24 24 23 22 21 19 18 17 16 16 15 14 14 13 13 12 12 12 12 12 12 12 12 12 12 12 12 12 13 13 12 13 12 12 12 12 11 11 11
35 34 33 31 29 28 27 26 25 24 22 21 20 19 19 18 17 16 15 14 14 13 13 13 12 12 12 12 12 12 12 12 12 12 11 11 10 10 10 10 10 10 10 9
39 38 36 35 33 31 30 29 28 27 26 25 24 23 22 21 20 18 18 17 16 15 15 14 14 13 13 13 12 12 12 12 12 11 11 10 9 9 9 8 8 8 8 8
43 42 40 39 37 36 35 33 32 31 30 28 27 26 25 24 23 22 21 20 19 18 17 16 16 15 14 14 13 13 13 13 12 12 11 10 10 9 9 8 8 7 7 7
47 46 45 43 42 40 39 38 36 35 34 32 31 30 29 28 27 25 24 23 22 21 20 19 18 17 16 16 15 15 15 14 14 13 12 12 11 11 10 9 9 8 8 7
51 50 49 48 46 45 44 42 41 40 38 37 36 35 34 32 31 30 29 27 26 25 24 23 22 21 20 19 18 18 17 17 16 15 15 14 13 13 12 12 11 11 10 9
55 54 53 52 51 50 48 47 46 44 43 42 40 39 38 37 35 34 33 32 30 29 28 27 26 24 23 23 22 21 21 20 19 18 18 17 16 16 15 15 14 14 13 13
60 59 58 57 55 54 53 52 50 49 48 46 45 44 43 41 40 39 37 36 35 34 32 31 30 29 27 27 26 25 24 23 23 22 21 21 20 19 19 18 18 18 17 17
63 63 62 61 60 59 58 56 55 54 53 52 50 49 48 46 45 44 43 41 40 38 37 36 35 33 32 31 30 29 28 27 27 26 25 25 24 24 23 22 22 22 21 21
64 64 65 64 64 63 62 61 60 59 58 57 56 54 53 52 50 49 48 46 45 43 42 41 40 38 37 35 34 33 32 32 31 30 30 29 29 28 28 27 26 26 25 25

GEFSNGP_500_meanwind_078.txt.gz
Wind_Speed
1 3 4 6 7 9 10 12 13 14 16 17 19 20 22 23 24 24 25 26 27 27 27 27 27 27 26 25 25 25 24 23 22 20 19 17 15 14 11 9 8 6 4 3
1 2 3 5 6 8 9 11 12 14 15 17 18 20 21 22 23 24 24 25 26 26 26 27 27 27 27 26 26 25 25 25 24 23 21 19 17 16 14 11 9 8 6 5
1 2 3 4 6 7 8 10 11 13 15 16 17 19 20 21 22 23 23 24 25 25 26 27 27 27 27 27 27 26 26 26 25 24 22 21 19 18 16 14 12 10 7 6
2 2 3 4 5 6 7 9 10 12 14 16 17 18 19 20 21 22 22 23 24 25 25 26 27 27 27 27 27 26 26 26 26 26 24 23 21 19 18 17 15 13 11 8
3 3 3 4 5 6 6 8 9 11 12 14 16 17 18 20 20 21 22 23 23 23 24 25 26 27 27 27 27 27 27 27 27 27 26 25 23 21 19 18 17 15 13 11
5 5 4 4 5 6 6 7 9 10 11 13 14 15 17 19 19 20 21 21 22 22 23 24 25 26 26 27 27 27 27 27 27 27 27 25 24 23 21 20 18 17 15 12
7 7 6 5 6 7 7 8 9 9 10 12 13 14 16 17 18 19 19 20 21 21 22 23 24 25 25 26 26 26 26 26 27 27 27 26 24 23 22 21 20 18 17 14
9 9 7 7 8 8 8 9 9 10 10 11 12 13 14 15 16 17 18 19 20 20 21 22 23 23 24 25 25 26 26 26 26 26 26 26 25 23 23 22 21 20 19 16
11 10 9 9 9 9 10 10 10 10 11 11 12 13 13 14 15 16 16 17 18 19 20 20 21 22 23 23 24 25 25 25 25 25 25 25 25 24 23 22 22 21 20 18
13 13 12 12 12 11 11 11 11 11 12 12 12 12 12 12 13 14 15 15 16 17 18 19 20 20 21 22 23 24 24 24 24 24 25 25 25 24 23 22 22 21 20 19
16 16 15 15 14 14 13 13 13 13 13 13 13 12 12 12 13 13 13 14 15 16 17 18 18 19 20 20 21 22 23 23 23 23 24 24 24 23 23 23 22 21 20 19
19 19 18 17 17 16 16 15 15 14 14 14 13 13 13 13 13 13 13 13 13 14 15 16 17 17 18 19 19 20 21 22 22 23 22 22 22 22 22 22 22 21 20 19
22 22 21 20 20 19 18 18 17 16 16 15 14 14 14 13 13 13 13 13 13 13 14 14 15 16 16 17 17 18 19 19 20 21 21 21 20 20 20 20 20 20 19 18
26 25 24 24 23 22 21 20 20 19 18 17 16 16 15 14 14 14 13 13 13 13 13 13 14 14 15 15 16 16 17 17 18 19 19 19 19 19 19 19 19 19 18 17
29 29 28 27 26 25 25 24 23 22 21 20 19 18 17 16 15 15 14 14 14 14 13 13 13 13 14 14 14 15 15 16 16 16 17 17 17 17 17 17 17 17 17 16
33 33 32 31 30 29 28 27 26 25 24 23 22 21 20 19 18 17 16 15 15 14 14 14 14 14 13 13 13 14 14 14 14 14 15 15 15 15 15 14 14 15 14 14
37 36 35 35 34 33 32 31 30 29 27 26 25 24 22 21 20 19 18 17 16 16 15 14 14 14 14 13 13 13 13 13 13 13 13 13 13 13 13 13 12 12 12 12
41 40 40 39 38 37 36 35 34 33 32 30 29 27 26 25 23 22 21 20 19 18 17 16 15 15 14 14 14 13 13 13 13 13 12 12 12 12 11 11 11 11 10 10
44 44 44 43 42 41 40 39 38 37 36 35 33 31 30 28 27 26 24 23 22 21 20 19 18 17 16 15 15 15 14 14 14 13 13 12 12 11 11 10 10 10 9 9
48 48 47 47 46 45 44 43 42 41 40 39 37 36 34 32 31 30 28 26 25 24 23 22 21 20 19 18 17 17 16 16 15 15 14 14 13 12 12 11 10 10 9 8
51 51 51 51 50 50 49 48 46 45 43 43 41 40 38 37 35 34 32 30 29 28 27 25 24 23 22 21 20 20 19 18 17 17 16 16 15 15 14 13 12 11 11 10
54 54 55 55 54 54 53 52 51 50 48 47 45 44 43 41 40 38 36 34 33 32 31 29 28 27 26 25 24 23 22 21 20 19 19 18 17 17 17 16 15 14 13 12
58 58 58 58 58 58 57 56 56 55 53 52 50 48 47 46 45 43 41 39 38 37 35 34 33 31 30 29 28 27 26 25 24 23 22 21 20 20 19 19 18 18 17 16
60 60 60 60 61 61 61 60 60 59 58 57 55 54 52 51 49 48 46 45 43 42 40 39 38 36 35 33 32 31 30 29 28 27 26 25 24 24 23 22 21 21 20 20
62 62 61 61 61 62 63 63 63 63 62 61 60 59 57 56 55 53 52 50 48 47 46 44 43 42 40 38 37 36 35 33 33 32 31 30 29 28 27 26 25 25 24 24
64 64 64 64 64 63 64 64 65 66 66 65 64 63 62 61 60 58 56 55 53 52 51 50 48 47 45 44 42 41 40 38 37 36 35 34 33 32 31 30 30 29 29 28
64 65 64 65 65 65 65 65 66 67 68 68 68 67 66 65 64 63 61 60 58 57 56 55 54 53 51 49 48 47 45 44 42 41 40 39 38 37 36 35 34 34 33 32

GEFSNGP_500_meanwind_084.txt.gz
Wind_Speed
4 3 2 1 1 3 5 6 8 10 12 14 15 17 19 21 22 22 24 25 26 27 28 29 29 28 28 28 28 28 29 28 27 25 24 22 20 18 15 12 9 8 6 3
3 3 2 2 1 3 4 6 7 9 11 13 15 16 18 20 21 22 23 24 25 26 27 28 28 29 29 28 28 28 28 28 28 27 25 24 21 19 17 14 12 9 7 4
3 4 3 3 3 3 4 5 7 8 10 12 14 16 17 19 20 21 22 23 24 25 26 26 27 28 28 29 28 28 28 28 28 28 26 25 23 21 20 17 15 13 10 7
4 4 4 4 4 4 4 5 7 8 10 12 13 15 16 18 19 20 21 22 23 24 25 26 26 27 27 28 28 28 28 28 28 27 27 26 25 23 22 20 18 15 11 8
5 5 5 5 5 5 6 6 7 8 9 11 13 14 15 17 18 19 20 21 22 23 24 25 26 26 26 27 28 28 28 28 28 27 27 26 26 25 24 22 20 17 14 11
6 6 6 6 6 6 6 7 7 8 9 11 12 13 15 16 17 18 19 20 20 22 23 24 24 25 25 26 27 28 28 28 28 28 27 26 26 25 24 23 21 19 16 14
7 7 8 8 7 7 7 7 8 9 10 11 12 13 14 15 16 17 17 18 19 20 21 22 23 24 24 24 25 26 27 27 27 27 27 26 26 25 24 23 22 20 18 16
9 10 10 9 9 9 9 9 9 9 10 11 12 12 13 14 15 16 17 18 18 19 20 21 22 22 23 23 24 24 25 26 27 27 26 26 26 25 25 24 23 21 19 17
12 12 12 11 11 11 11 11 11 11 11 12 12 13 13 14 14 15 16 17 17 18 18 19 20 21 21 22 22 23 23 24 25 25 25 25 25 25 25 24 23 22 20 19
14 14 14 14 13 13 13 13 13 13 13 13 13 13 13 14 14 15 15 16 16 17 17 18 18 19 19 20 20 21 21 22 23 23 24 24 24 24 24 23 23 22 21 20
17 17 17 17 16 16 16 16 16 15 15 15 15 15 15 15 15 15 15 15 16 16 16 17 17 18 18 18 19 19 20 20 21 21 22 22 22 22 23 23 22 21 20 20
20 19 19 19 19 19 19 19 19 18 18 17 17 16 16 16 16 16 16 16 16 16 16 16 16 16 17 17 17 18 18 19 19 20 20 20 20 20 20 20 20 20 19 18
22 22 22 22 22 22 22 22 21 21 20 20 19 19 18 18 18 18 18 17 17 17 17 17 16 16 16 16 16 16 17 17 17 18 18 18 18 18 18 18 18 18 17 17
25 25 25 25 25 25 25 24 24 24 23 23 22 22 21 21 21 20 20 19 19 18 18 17 17 17 17 16 16 16 15 16 16 16 16 16 16 16 15 15 16 16 16 15
29 29 29 28 28 28 28 28 27 27 27 26 26 26 25 24 23 23 23 22 22 21 20 19 19 18 17 17 16 16 15 15 15 15 14 14 14 14 14 13 13 13 13 13
32 32 32 32 32 32 32 32 31 31 30 30 29 29 29 28 27 26 26 25 25 24 23 22 21 20 19 18 18 17 16 15 15 14 14 13 13 13 12 12 11 11 11 11
34 35 36 36 36 36 36 36 36 35 35 34 34 33 32 32 31 30 30 29 28 27 26 26 25 23 22 21 20 19 18 17 16 15 14 14 13 12 12 11 11 10 9 9
37 38 39 39 40 40 40 40 40 40 39 39 38 37 36 36 35 34 34 33 31 30 30 29 28 27 25 24 23 21 20 19 18 17 16 15 14 13 13 12 11 10 9 9
41 41 42 42 43 43 44 44 44 44 44 43 43 41 40 39 39 38 38 36 35 34 34 33 32 31 30 28 27 25 23 22 21 20 19 17 16 15 14 13 12 11 11 10
43 44 44 45 46 46 46 47 47 48 48 48 47 46 45 44 43 42 42 40 38 38 38 37 36 34 33 33 31 29 27 26 24 23 22 20 19 18 17 16 14 14 13 12
46 46 47 47 48 49 49 50 50 50 51 51 51 50 49 48 48 47 46 44 42 42 42 41 39 38 37 36 35 33 32 30 28 27 25 24 22 21 20 19 17 16 16 15
48 48 49 49 50 51 51 52 52 53 53 53 53 53 53 52 52 51 50 48 47 47 46 45 43 42 41 40 39 37 36 34 33 31 30 28 26 25 23 22 21 20 19 18
48 48 49 50 51 51 52 53 54 54 55 55 55 56 56 56 56 55 54 53 52 51 50 49 47 46 45 44 43 41 40 39 37 36 34 32 31 29 27 26 25 24 22 22
48 49 50 51 52 53 54 54 55 56 57 57 58 58 58 57 57 58 58 57 56 55 54 53 52 51 50 48 47 45 44 43 41 40 39 37 35 34 32 31 29 28 27 26
52 53 53 54 55 56 56 56 57 57 58 58 59 60 60 60 60 59 60 60 60 59 58 57 56 55 54 53 51 50 48 47 46 44 43 41 40 38 37 35 34 33 31 30
53 54 55 56 56 57 58 59 59 59 59 60 60 61 62 62 62 62 61 61 62 62 62 61 60 59 58 57 56 55 53 52 51 49 47 46 44 43 41 40 39 37 36 35
54 55 56 57 57 58 59 60 60 60 60 60 60 61 61 62 62 62 62 62 62 63 63 64 63 62 62 61 60 59 58 57 55 54 52 51 49 48 46 45 43 42 41 39